{"data":{"norad_id":66422,"epoch":"2026-05-24T13:38:44.659680Z","epoch_age_seconds":109413,"freshness":"FRESH","line1":"1 66422U 25259A   26144.56857245  .00024232  00000+0  88668-3 0  9993","line2":"2 66422  43.0019 206.0358 0001903 268.4873  91.5761 15.27599334 31094","mean_motion":15.27599334,"eccentricity":0.0001903,"inclination_deg":43.0019,"raan_deg":206.0358,"arg_perigee_deg":268.4873,"mean_anomaly_deg":91.5761,"bstar":0.00088668,"rev_number":3109,"period_min":94.265555630309,"perigee_km":481.68553100172,"apogee_km":484.29687639605,"semimajor_km":6861.1282036989,"source":"CELESTRAK","updated_at":"2026-05-25T13:38:21.206531Z"}}